Regional Weather Roundup
Issued by NWS

Home | Current Version | Previous Version | Graphics & Text | Print | Product List | Glossary On
Versions: 1 2 3 4 5 6 7 8 9 10 11 12 13 14 15 16 17 18 19 20 21 22 23 24 25 26 27 28 29 30 31 32 33 34 35 36 37 38 39 40 41 42 43 44 45 46 47 48 49 50
872
ASUS43 KDTX 250010
RWRMI
MICHIGAN HOURLY REGIONAL WEATHER ROUNDUP
NATIONAL WEATHER SERVICE DETROIT/PONTIAC MI
800 PM EDT SAT SEP 24 2016

NOTE: "FAIR" INDICATES FEW OR NO CLOUDS BELOW 12,000 FEET WITH NO
SIGNIFICANT WEATHER AND/OR OBSTRUCTION TO VISIBILITY.

MIZ047>049-052>055-059>063-066>070-074>076-081>083-250100-
SOUTHEAST LOWER MICHIGAN

CITY           SKY/WX    TMP DP  RH WIND       PRES   REMARKS
ADRIAN         CLEAR     63  54  72 SE5       30.20F
6HR MIN TEMP:  63; 6HR MAX TEMP:  74;

ALMA           CLEAR     59  53  80 NE5       30.22S
ANN ARBOR      CLEAR     59  51  75 E3        30.20F
BAD AXE        CLEAR     52  45  76 CALM      30.26S
CARO           CLEAR     56  46  67 E6        30.24R
DETROIT CITY   CLEAR     62  49  62 NE7       30.21F
6HR MIN TEMP:  62; 6HR MAX TEMP:  69;

DETROIT        PTCLDY    65  43  44 E3        30.21F
6HR MIN TEMP:  65; 6HR MAX TEMP:  70;

FLINT          CLEAR     58  47  66 E7        30.22S
6HR MIN TEMP:  58; 6HR MAX TEMP:  69;

GROSSE ILE     CLEAR     64  49  59 E3        30.20F
6HR MIN TEMP:  63; 6HR MAX TEMP:  71;

HILLSDALE      MOCLDY    61  54  77 E3        30.19S
HOWELL         CLEAR     60  53  75 CALM      30.21S HAZE

CITY           SKY/WX    TMP DP  RH WIND       PRES   REMARKS
JACKSON        CLEAR     62  54  74 E7        30.19F
6HR MIN TEMP:  62; 6HR MAX TEMP:  72;

LAMBERTVILLE   CLEAR     63  55  74 CALM      30.20F
6HR MIN TEMP:  63; 6HR MAX TEMP:  71;

LANSING        CLEAR     61  50  67 NE6       30.21S
6HR MIN TEMP:  61; 6HR MAX TEMP:  69;

LAPEER         FAIR      57  46  65 E5        30.24S
6HR MIN TEMP:  57; 6HR MAX TEMP:  67;

MASON          CLEAR     60  52  74 CALM      30.21S
MONROE         CLEAR     61  56  82 SW3       30.19F
6HR MIN TEMP:  61; 6HR MAX TEMP:  71;

MT. CLEMENS    PTCLDY    58  46  65 NE10      30.20F
6HR MIN TEMP:  58; 6HR MAX TEMP:  67;

PONTIAC        CLEAR     61  46  57 NE7       30.21S
6HR MIN TEMP:  61; 6HR MAX TEMP:  69;

PORT HOPE        N/A     61  46  57 NE12      30.24F
6HR MIN TEMP:  60; 6HR MAX TEMP:  62;

PORT HURON     CLEAR     50  46  87 CALM      30.24S
TRI CITIES     CLEAR     59  49  69 NE10      30.24F
6HR MIN TEMP:  59; 6HR MAX TEMP:  68;

MIDLAND        FAIR      57  48  72 NE5       30.22F
6HR MIN TEMP:  57; 6HR MAX TEMP:  67;

TROY           CLEAR     65  43  44 NE9       30.24S
SAGINAW HB     CLEAR     57  45  62 NE9       30.23S
$$
MIZ043>046-050>051-056>058-064>065-071>073-077>080-250100-
SOUTHWEST LOWER MICHIGAN

CITY           SKY/WX    TMP DP  RH WIND       PRES   REMARKS
BATTLE CREEK   CLEAR     67  56  67 NE3       30.18F
6HR MIN TEMP:  67; 6HR MAX TEMP:  73;

BENTON HARBOR  CLEAR     68  60  75 E6        30.14F
6HR MIN TEMP:  68; 6HR MAX TEMP:  75;

BIG RAPIDS     CLEAR     59  49  68 E5        30.19F
6HR MIN TEMP:  59; 6HR MAX TEMP:  68;

COLDWATER      CLEAR     66  56  69 E5        30.17F
6HR MIN TEMP:  66; 6HR MAX TEMP:  72;

FREMONT        FAIR      62  46  56 E3        30.18F
HOLLAND        CLEAR     65  54  67 E6        30.17F
6HR MIN TEMP:  65; 6HR MAX TEMP:  72;

GRAND RAPIDS   CLEAR     62  52  69 E8        30.19F
6HR MIN TEMP:  62; 6HR MAX TEMP:  70;

IONIA          FAIR      60  49  68 NE5       30.19F
6HR MIN TEMP:  60; 6HR MAX TEMP:  68;

KALAMAZOO      CLEAR     67  56  67 NE3       30.17F
6HR MIN TEMP:  67; 6HR MAX TEMP:  73;

LUDINGTON      MOCLDY    61  53  76 CALM      30.17S
6HR MIN TEMP:  61; 6HR MAX TEMP:  70;

MARSHALL       CLEAR     64  56  73 CALM      30.18S
6HR MIN TEMP:  64; 6HR MAX TEMP:  72;

MOUNT PLEASANT CLEAR     59  50  72 E8        30.22S
MUSKEGON       CLEAR     64  53  67 E6        30.18S
6HR MIN TEMP:  64; 6HR MAX TEMP:  71;

SOUTH HAVEN    CLEAR     68  62  80 E5        30.15F
$$
MIZ016>042-250100-
NORTHERN LOWER MICHIGAN

CITY           SKY/WX    TMP DP  RH WIND       PRES   REMARKS
ALPENA         CLEAR     54  44  69 SE5       30.26F
6HR MIN TEMP:  54; 6HR MAX TEMP:  65;

BEAVER ISLAND  CLEAR     53  50  89 CALM      30.22F
6HR MIN TEMP:  53; 6HR MAX TEMP:  64;

BELLAIRE       CLEAR     54  50  86 NE3       30.21S
6HR MIN TEMP:  54; 6HR MAX TEMP:  68;

CADILLAC       CLEAR     58  48  69 E6        30.20F
CHARLEVOIX     CLEAR     63  46  53 E6        30.24F
FRANKFORT      CLEAR     60  52  75 CALM      30.18S
GAYLORD        CLEAR     58  43  57 E3        30.23F
6HR MIN TEMP:  58; 6HR MAX TEMP:  65;

GRAYLING       CLEAR     59  47  63 E8        30.23F
HARBOR SPRINGS CLEAR     56  46  67 E6        30.23S
HOUGHTON LAKE  PTCLDY    56  46  69 SE6       30.23F
6HR MIN TEMP:  56; 6HR MAX TEMP:  66;

MANISTEE       CLEAR     60  53  77 E3        30.17F
OSCODA         CLEAR     56  44  63 E5        30.25F
6HR MIN TEMP:  56; 6HR MAX TEMP:  64;

PELLSTON       CLEAR     56  42  59 E5        30.24F
6HR MIN TEMP:  56; 6HR MAX TEMP:  65;

ROGERS CITY    CLEAR     56  43  61 SE5       30.27S
TRAVERSE CITY  PTCLDY    61  51  70 CALM      30.18F
6HR MIN TEMP:  61; 6HR MAX TEMP:  71;

$$
MIZ007>008-015-250100-
EASTERN UPPER MICHIGAN

CITY           SKY/WX    TMP DP  RH WIND       PRES   REMARKS
KINROSS        CLEAR     54  45  71 SE6       30.25F
6HR MIN TEMP:  54; 6HR MAX TEMP:  65;

MACKINAC ISLAN CLEAR     57  44  61 SE6       30.24S
NEWBERRY       CLEAR     55  47  75 CALM      30.23S
6HR MIN TEMP:  55; 6HR MAX TEMP:  64;

S. S. MARIE    CLEAR     57  46  66 S7        30.24S
6HR MIN TEMP:  57; 6HR MAX TEMP:  67;

MUNISING         N/A     57  49  74 S5        30.20F
6HR MIN TEMP:  57; 6HR MAX TEMP:  67;

$$
MIZ004>006-011>014-085-250100-
CENTRAL UPPER MICHIGAN

CITY           SKY/WX    TMP DP  RH WIND       PRES   REMARKS
MANISTIQUE     CLEAR     54  48  78 E6        30.21S
6HR MIN TEMP:  54; 6HR MAX TEMP:  64;

ESCANABA       CLEAR     60  50  69 SE8       30.19
6HR MIN TEMP:  60; 6HR MAX TEMP:  65;

MENOMINEE      CLEAR     62  51  67 SE8       30.18F
6HR MIN TEMP:  62; 6HR MAX TEMP:  67;

SAWYER-GWINN   CLEAR     57  46  67 S8        30.19F
$$
MIZ001>003-009>011-084-250100-
WESTERN UPPER MICHIGAN

CITY           SKY/WX    TMP DP  RH WIND       PRES   REMARKS
IRON MOUNTAIN  CLEAR     60  48  64 SE8       30.17S
6HR MIN TEMP:  60; 6HR MAX TEMP:  69;

HOUGHTON       CLEAR     60  53  77 E7        30.14S
6HR MIN TEMP:  60; 6HR MAX TEMP:  66;

COPPER HARBOR    N/A     62  52  69 S10       30.15F
6HR MIN TEMP:  62; 6HR MAX TEMP:  65;

IRONWOOD       MOCLDY    66  55  67 SE5       30.14R
6HR MIN TEMP:  66; 6HR MAX TEMP:  70;

$$

ABBREVIATIONS USED IN REMARKS
   TC - TEMPERATURE IN CELSIUS
  WCI - WIND CHILL INDEX
   HX - HEAT INDEX
  VSB - VISIBILITY





USA.gov is the U.S. government's official web portal to all federal, state and local government web resources and services.